Location: New Plymouth
(39.0670°S, 174.0830°E)
Time: 23:29:51
(UTC+12:00)

ISS - Pass Details

Date: 23 June 2019
Orbit: 409 x 418 km, 51.6° (Epoch: 20 July)

Event Time Altitude Azimuth Distance (km) Brightness Sun altitude
Rises 19:47:25 0° 286° (WNW) 2,380 1.2 -29.9°
Reaches altitude 10° 19:49:39 10° 275° (W) 1,520 0.0 -30.4°
Enters shadow 19:50:25 15° 268° (W) 1,251 -0.6 -30.5°
